Year,Month,Day,Hour,Minute,Value (Times are PST for temperature in C)
2009,04,21,00,00,9.30
2009,04,21,00,01,9.40
2009,04,21,00,02,9.40
2009,04,21,00,03,9.50
2009,04,21,00,04,9.50
2009,04,21,00,05,9.60
2009,04,21,00,06,9.60
2009,04,21,00,07,9.60
2009,04,21,00,08,9.60
2009,04,21,00,09,9.70
2009,04,21,00,10,9.70
2009,04,21,00,11,9.70
2009,04,21,00,12,9.70
2009,04,21,00,13,9.70
2009,04,21,00,14,9.70
2009,04,21,00,15,9.70
2009,04,21,00,16,9.70
2009,04,21,00,17,9.70
2009,04,21,00,18,9.70
2009,04,21,00,19,9.80
2009,04,21,00,20,9.80
2009,04,21,00,21,9.80
2009,04,21,00,22,9.80
2009,04,21,00,23,9.90
2009,04,21,00,24,9.90
2009,04,21,00,25,9.90
2009,04,21,00,26,9.90
2009,04,21,00,27,10.00
2009,04,21,00,28,10.00
2009,04,21,00,29,10.00
2009,04,21,00,30,10.10
2009,04,21,00,31,10.10
2009,04,21,00,32,10.10
2009,04,21,00,33,10.20
2009,04,21,00,34,10.20
2009,04,21,00,35,10.20
2009,04,21,00,36,10.20
2009,04,21,00,37,10.20
2009,04,21,00,38,10.20
2009,04,21,00,39,10.20
2009,04,21,00,40,10.20
2009,04,21,00,41,10.20
2009,04,21,00,42,10.20
2009,04,21,00,43,10.20
2009,04,21,00,44,10.20
2009,04,21,00,45,10.20
2009,04,21,00,46,10.10
2009,04,21,00,47,10.10
2009,04,21,00,48,10.00
2009,04,21,00,49,10.00
2009,04,21,00,50,9.90
2009,04,21,00,51,9.90
2009,04,21,00,52,9.80
2009,04,21,00,53,9.80
2009,04,21,00,54,9.70
2009,04,21,00,55,9.60
2009,04,21,00,56,9.60
2009,04,21,00,57,9.60
2009,04,21,00,58,9.50
2009,04,21,00,59,9.40
2009,04,21,01,00,9.40
2009,04,21,01,01,9.40
2009,04,21,01,02,9.30
2009,04,21,01,03,9.30
2009,04,21,01,04,9.30
2009,04,21,01,05,9.30
2009,04,21,01,06,9.30
2009,04,21,01,07,9.30
2009,04,21,01,08,9.30
2009,04,21,01,09,9.30
2009,04,21,01,10,9.30
2009,04,21,01,11,9.30
2009,04,21,01,12,9.30
2009,04,21,01,13,9.30
2009,04,21,01,14,9.30
2009,04,21,01,15,9.20
2009,04,21,01,16,9.20
2009,04,21,01,17,9.20
2009,04,21,01,18,9.20
2009,04,21,01,19,9.20
2009,04,21,01,20,9.20
2009,04,21,01,21,9.20
2009,04,21,01,22,9.20
2009,04,21,01,23,9.20
2009,04,21,01,24,9.20
2009,04,21,01,25,9.20
2009,04,21,01,26,9.10
2009,04,21,01,27,9.10
2009,04,21,01,28,9.10
2009,04,21,01,29,9.10
2009,04,21,01,30,9.10
2009,04,21,01,31,9.10
2009,04,21,01,32,9.10
2009,04,21,01,33,9.10
2009,04,21,01,34,9.00
2009,04,21,01,35,9.00
2009,04,21,01,36,9.00
2009,04,21,01,37,9.00
2009,04,21,01,38,9.00
2009,04,21,01,39,9.00
2009,04,21,01,40,8.90
2009,04,21,01,41,8.90
2009,04,21,01,42,8.90
2009,04,21,01,43,8.90
2009,04,21,01,44,8.90
2009,04,21,01,45,8.90
2009,04,21,01,46,8.90
2009,04,21,01,47,8.90
2009,04,21,01,48,8.90
2009,04,21,01,49,8.90
2009,04,21,01,50,8.90
2009,04,21,01,51,8.80
2009,04,21,01,52,8.80
2009,04,21,01,53,8.80
2009,04,21,01,54,8.80
2009,04,21,01,55,8.80
2009,04,21,01,56,8.80
2009,04,21,01,57,8.80
2009,04,21,01,58,8.80
2009,04,21,01,59,8.80
2009,04,21,02,00,8.80
2009,04,21,02,01,8.80
2009,04,21,02,02,8.90
2009,04,21,02,03,8.90
2009,04,21,02,04,9.00
2009,04,21,02,05,9.10
2009,04,21,02,06,9.10
2009,04,21,02,07,9.20
2009,04,21,02,08,9.20
2009,04,21,02,09,9.30
2009,04,21,02,10,9.30
2009,04,21,02,11,9.30
2009,04,21,02,12,9.30
2009,04,21,02,13,9.30
2009,04,21,02,14,9.30
2009,04,21,02,15,9.30
2009,04,21,02,16,9.30
2009,04,21,02,17,9.20
2009,04,21,02,18,9.20
2009,04,21,02,19,9.20
2009,04,21,02,20,9.20
2009,04,21,02,21,9.10
2009,04,21,02,22,9.10
2009,04,21,02,23,9.10
2009,04,21,02,24,9.10
2009,04,21,02,25,9.00
2009,04,21,02,26,9.00
2009,04,21,02,27,9.00
2009,04,21,02,28,8.90
2009,04,21,02,29,8.90
2009,04,21,02,30,8.90
2009,04,21,02,31,8.90
2009,04,21,02,32,8.80
2009,04,21,02,33,8.80
2009,04,21,02,34,8.80
2009,04,21,02,35,8.80
2009,04,21,02,36,8.80
2009,04,21,02,37,8.80
2009,04,21,02,38,8.80
2009,04,21,02,39,8.80
2009,04,21,02,40,8.80
2009,04,21,02,41,8.80
2009,04,21,02,42,8.80
2009,04,21,02,43,8.80
2009,04,21,02,44,8.80
2009,04,21,02,45,8.80
2009,04,21,02,46,8.80
2009,04,21,02,47,8.80
2009,04,21,02,48,8.80
2009,04,21,02,49,8.80
2009,04,21,02,50,8.80
2009,04,21,02,51,8.70
2009,04,21,02,52,8.70
2009,04,21,02,53,8.70
2009,04,21,02,54,8.70
2009,04,21,02,55,8.70
2009,04,21,02,56,8.60
2009,04,21,02,57,8.60
2009,04,21,02,58,8.60
2009,04,21,02,59,8.60
2009,04,21,03,00,8.60
2009,04,21,03,01,8.70
2009,04,21,03,02,8.70
2009,04,21,03,03,8.70
2009,04,21,03,04,8.70
2009,04,21,03,05,8.70
2009,04,21,03,06,8.70
2009,04,21,03,07,8.70
2009,04,21,03,08,8.70
2009,04,21,03,09,8.70
2009,04,21,03,10,8.70
2009,04,21,03,11,8.70
2009,04,21,03,12,8.70
2009,04,21,03,13,8.70
2009,04,21,03,14,8.70
2009,04,21,03,15,8.60
2009,04,21,03,16,8.60
2009,04,21,03,17,8.60
2009,04,21,03,18,8.60
2009,04,21,03,19,8.60
2009,04,21,03,20,8.60
2009,04,21,03,21,8.60
2009,04,21,03,22,8.60
2009,04,21,03,23,8.60
2009,04,21,03,24,8.60
2009,04,21,03,25,8.50
2009,04,21,03,26,8.50
2009,04,21,03,27,8.50
2009,04,21,03,28,8.40
2009,04,21,03,29,8.40
2009,04,21,03,30,8.40
2009,04,21,03,31,8.40
2009,04,21,03,32,8.40
2009,04,21,03,33,8.30
2009,04,21,03,34,8.30
2009,04,21,03,35,8.30
2009,04,21,03,36,8.30
2009,04,21,03,37,8.40
2009,04,21,03,38,8.40
2009,04,21,03,39,8.40
2009,04,21,03,40,8.40
2009,04,21,03,41,8.30
2009,04,21,03,42,8.30
2009,04,21,03,43,8.30
2009,04,21,03,44,8.30
2009,04,21,03,45,8.30
2009,04,21,03,46,8.20
2009,04,21,03,47,8.20
2009,04,21,03,48,8.20
2009,04,21,03,49,8.20
2009,04,21,03,50,8.20
2009,04,21,03,51,8.20
2009,04,21,03,52,8.20
2009,04,21,03,53,8.20
2009,04,21,03,54,8.20
2009,04,21,03,55,8.30
2009,04,21,03,56,8.30
2009,04,21,03,57,8.30
2009,04,21,03,58,8.30
2009,04,21,03,59,8.30
2009,04,21,04,00,8.20
2009,04,21,04,01,8.20
2009,04,21,04,02,8.30
2009,04,21,04,03,8.30
2009,04,21,04,04,8.30
2009,04,21,04,05,8.30
2009,04,21,04,06,8.30
2009,04,21,04,07,8.30
2009,04,21,04,08,8.30
2009,04,21,04,09,8.20
2009,04,21,04,10,8.30
2009,04,21,04,11,8.30
2009,04,21,04,12,8.20
2009,04,21,04,13,8.30
2009,04,21,04,14,8.30
2009,04,21,04,15,8.30
2009,04,21,04,16,8.30
2009,04,21,04,17,8.30
2009,04,21,04,18,8.30
2009,04,21,04,19,8.30
2009,04,21,04,20,8.30
2009,04,21,04,21,8.30
2009,04,21,04,22,8.30
2009,04,21,04,23,8.30
2009,04,21,04,24,8.30
2009,04,21,04,25,8.30
2009,04,21,04,26,8.30
2009,04,21,04,27,8.30
2009,04,21,04,28,8.30
2009,04,21,04,29,8.20
2009,04,21,04,30,8.30
2009,04,21,04,31,8.30
2009,04,21,04,32,8.30
2009,04,21,04,33,8.30
2009,04,21,04,34,8.30
2009,04,21,04,35,8.30
2009,04,21,04,36,8.30
2009,04,21,04,37,8.30
2009,04,21,04,38,8.30
2009,04,21,04,39,8.30
2009,04,21,04,40,8.30
2009,04,21,04,41,8.30
2009,04,21,04,42,8.20
2009,04,21,04,43,8.20
2009,04,21,04,44,8.20
2009,04,21,04,45,8.20
2009,04,21,04,46,8.20
2009,04,21,04,47,8.10
2009,04,21,04,48,8.10
2009,04,21,04,49,8.00
2009,04,21,04,50,8.00
2009,04,21,04,51,8.00
2009,04,21,04,52,7.90
2009,04,21,04,53,7.80
2009,04,21,04,54,7.80
2009,04,21,04,55,7.70
2009,04,21,04,56,7.60
2009,04,21,04,57,7.50
2009,04,21,04,58,7.50
2009,04,21,04,59,7.40
2009,04,21,05,00,7.30
2009,04,21,05,01,7.30
2009,04,21,05,02,7.30
2009,04,21,05,03,7.20
2009,04,21,05,04,7.20
2009,04,21,05,05,7.20
2009,04,21,05,06,7.20
2009,04,21,05,07,7.20
2009,04,21,05,08,7.20
2009,04,21,05,09,7.20
2009,04,21,05,10,7.20
2009,04,21,05,11,7.30
2009,04,21,05,12,7.30
2009,04,21,05,13,7.30
2009,04,21,05,14,7.30
2009,04,21,05,15,7.30
2009,04,21,05,16,7.30
2009,04,21,05,17,7.30
2009,04,21,05,18,7.30
2009,04,21,05,19,7.30
2009,04,21,05,20,7.40
2009,04,21,05,21,7.40
2009,04,21,05,22,7.40
2009,04,21,05,23,7.50
2009,04,21,05,24,7.50
2009,04,21,05,25,7.50
2009,04,21,05,26,7.50
2009,04,21,05,27,7.50
2009,04,21,05,28,7.40
2009,04,21,05,29,7.50
2009,04,21,05,30,7.50
2009,04,21,05,31,7.60
2009,04,21,05,32,7.60
2009,04,21,05,33,7.60
2009,04,21,05,34,7.60
2009,04,21,05,35,7.60
2009,04,21,05,36,7.60
2009,04,21,05,37,7.60
2009,04,21,05,38,7.50
2009,04,21,05,39,7.50
2009,04,21,05,40,7.50
2009,04,21,05,41,7.50
2009,04,21,05,42,7.50
2009,04,21,05,43,7.50
2009,04,21,05,44,7.40
2009,04,21,05,45,7.40
2009,04,21,05,46,7.40
2009,04,21,05,47,7.40
2009,04,21,05,48,7.40
2009,04,21,05,49,7.30
2009,04,21,05,50,7.30
2009,04,21,05,51,7.30
2009,04,21,05,52,7.30
2009,04,21,05,53,7.30
2009,04,21,05,54,7.30
2009,04,21,05,55,7.30
2009,04,21,05,56,7.30
2009,04,21,05,57,7.30
2009,04,21,05,58,7.40
2009,04,21,05,59,7.40
2009,04,21,06,00,7.50
2009,04,21,06,01,7.50
2009,04,21,06,02,7.60
2009,04,21,06,03,7.60
2009,04,21,06,04,7.60
2009,04,21,06,05,7.70
2009,04,21,06,06,7.70
2009,04,21,06,07,7.70
2009,04,21,06,08,7.70
2009,04,21,06,09,7.70
2009,04,21,06,10,7.70
2009,04,21,06,11,7.70
2009,04,21,06,12,7.80
2009,04,21,06,13,7.80
2009,04,21,06,14,7.80
2009,04,21,06,15,7.80
2009,04,21,06,16,7.80
2009,04,21,06,17,7.80
2009,04,21,06,18,7.70
2009,04,21,06,19,7.70
2009,04,21,06,20,7.70
2009,04,21,06,21,7.70
2009,04,21,06,22,7.70
2009,04,21,06,23,7.60
2009,04,21,06,24,7.60
2009,04,21,06,25,7.60
2009,04,21,06,26,7.60
2009,04,21,06,27,7.60
2009,04,21,06,28,7.50
2009,04,21,06,29,7.50
2009,04,21,06,30,7.50
2009,04,21,06,31,7.50
2009,04,21,06,32,7.40
2009,04,21,06,33,7.40
2009,04,21,06,34,7.40
2009,04,21,06,35,7.40
2009,04,21,06,36,7.40
2009,04,21,06,37,7.40
2009,04,21,06,38,7.40
2009,04,21,06,39,7.40
2009,04,21,06,40,7.40
2009,04,21,06,41,7.40
2009,04,21,06,42,7.40
2009,04,21,06,43,7.40
2009,04,21,06,44,7.40
2009,04,21,06,45,7.40
2009,04,21,06,46,7.50
2009,04,21,06,47,7.50
2009,04,21,06,48,7.50
2009,04,21,06,49,7.60
2009,04,21,06,50,7.60
2009,04,21,06,51,7.60
2009,04,21,06,52,7.60
2009,04,21,06,53,7.60
2009,04,21,06,54,7.70
2009,04,21,06,55,7.70
2009,04,21,06,56,7.70
2009,04,21,06,57,7.80
2009,04,21,06,58,7.80
2009,04,21,06,59,7.90
2009,04,21,07,00,7.90
2009,04,21,07,01,8.00
2009,04,21,07,02,8.00
2009,04,21,07,03,8.10
2009,04,21,07,04,8.10
2009,04,21,07,05,8.10
2009,04,21,07,06,8.10
2009,04,21,07,07,8.10
2009,04,21,07,08,8.10
2009,04,21,07,09,8.10
2009,04,21,07,10,8.10
2009,04,21,07,11,8.10
2009,04,21,07,12,8.10
2009,04,21,07,13,8.20
2009,04,21,07,14,8.20
2009,04,21,07,15,8.20
2009,04,21,07,16,8.20
2009,04,21,07,17,8.30
2009,04,21,07,18,8.30
2009,04,21,07,19,8.30
2009,04,21,07,20,8.30
2009,04,21,07,21,8.30
2009,04,21,07,22,8.30
2009,04,21,07,23,8.40
2009,04,21,07,24,8.40
2009,04,21,07,25,8.40
2009,04,21,07,26,8.40
2009,04,21,07,27,8.40
2009,04,21,07,28,8.40
2009,04,21,07,29,8.50
2009,04,21,07,30,8.50
2009,04,21,07,31,8.60
2009,04,21,07,32,8.60
2009,04,21,07,33,8.60
2009,04,21,07,34,8.60
2009,04,21,07,35,8.70
2009,04,21,07,36,8.80
2009,04,21,07,37,8.90
2009,04,21,07,38,8.90
2009,04,21,07,39,9.00
2009,04,21,07,40,9.00
2009,04,21,07,41,9.10
2009,04,21,07,42,9.10
2009,04,21,07,43,9.20
2009,04,21,07,44,9.20
2009,04,21,07,45,9.20
2009,04,21,07,46,9.20
2009,04,21,07,47,9.10
2009,04,21,07,48,9.10
2009,04,21,07,49,9.10
2009,04,21,07,50,9.10
2009,04,21,07,51,9.10
2009,04,21,07,52,9.10
2009,04,21,07,53,9.10
2009,04,21,07,54,9.10
2009,04,21,07,55,9.10
2009,04,21,07,56,9.10
2009,04,21,07,57,9.20
2009,04,21,07,58,9.20
2009,04,21,07,59,9.20
2009,04,21,08,00,9.20
2009,04,21,08,01,9.30
2009,04,21,08,02,9.40
2009,04,21,08,03,9.40
2009,04,21,08,04,9.50
2009,04,21,08,05,9.60
2009,04,21,08,06,9.70
2009,04,21,08,07,9.70
2009,04,21,08,08,9.80
2009,04,21,08,09,9.90
2009,04,21,08,10,10.00
2009,04,21,08,11,10.10
2009,04,21,08,12,10.20
2009,04,21,08,13,10.30
2009,04,21,08,14,10.40
2009,04,21,08,15,10.50
2009,04,21,08,16,10.60
2009,04,21,08,17,10.60
2009,04,21,08,18,10.70
2009,04,21,08,19,10.80
2009,04,21,08,20,10.80
2009,04,21,08,21,10.90
2009,04,21,08,22,11.00
2009,04,21,08,23,11.00
2009,04,21,08,24,11.00
2009,04,21,08,25,11.00
2009,04,21,08,26,11.00
2009,04,21,08,27,10.90
2009,04,21,08,28,10.90
2009,04,21,08,29,10.80
2009,04,21,08,30,10.80
2009,04,21,08,31,10.80
2009,04,21,08,32,10.70
2009,04,21,08,33,10.70
2009,04,21,08,34,10.70
2009,04,21,08,35,10.70
2009,04,21,08,36,10.70
2009,04,21,08,37,10.70
2009,04,21,08,38,10.80
2009,04,21,08,39,10.80
2009,04,21,08,40,10.70
2009,04,21,08,41,10.70
2009,04,21,08,42,10.70
2009,04,21,08,43,10.70
2009,04,21,08,44,10.60
2009,04,21,08,45,10.60
2009,04,21,08,46,10.50
2009,04,21,08,47,10.50
2009,04,21,08,48,10.50
2009,04,21,08,49,10.50
2009,04,21,08,50,10.50
2009,04,21,08,51,10.50
2009,04,21,08,52,10.50
2009,04,21,08,53,10.40
2009,04,21,08,54,10.40
2009,04,21,08,55,10.40
2009,04,21,08,56,10.30
2009,04,21,08,57,10.30
2009,04,21,08,58,10.30
2009,04,21,08,59,10.30
2009,04,21,09,00,10.30
2009,04,21,09,01,10.40
2009,04,21,09,02,10.40
2009,04,21,09,03,10.40
2009,04,21,09,04,10.50
2009,04,21,09,05,10.50
2009,04,21,09,06,10.50
2009,04,21,09,07,10.40
2009,04,21,09,08,10.40
2009,04,21,09,09,10.40
2009,04,21,09,10,10.40
2009,04,21,09,11,10.50
2009,04,21,09,12,10.40
2009,04,21,09,13,10.40
2009,04,21,09,14,10.40
2009,04,21,09,15,10.40
2009,04,21,09,16,10.40
2009,04,21,09,17,10.40
2009,04,21,09,18,10.40
2009,04,21,09,19,10.40
2009,04,21,09,20,10.30
2009,04,21,09,21,10.40
2009,04,21,09,22,10.40
2009,04,21,09,23,10.40
2009,04,21,09,24,10.50
2009,04,21,09,25,10.60
2009,04,21,09,26,10.60
2009,04,21,09,27,10.60
2009,04,21,09,28,10.60
2009,04,21,09,29,10.60
2009,04,21,09,30,10.60
2009,04,21,09,31,10.60
2009,04,21,09,32,10.50
2009,04,21,09,33,10.50
2009,04,21,09,34,10.60
2009,04,21,09,35,10.70
2009,04,21,09,36,10.80
2009,04,21,09,37,10.90
2009,04,21,09,38,10.90
2009,04,21,09,39,10.90
2009,04,21,09,40,10.90
2009,04,21,09,41,10.90
2009,04,21,09,42,10.90
2009,04,21,09,43,10.80
2009,04,21,09,44,10.70
2009,04,21,09,45,10.70
2009,04,21,09,46,10.70
2009,04,21,09,47,10.60
2009,04,21,09,48,10.50
2009,04,21,09,49,10.50
2009,04,21,09,50,10.40
2009,04,21,09,51,10.50
2009,04,21,09,52,10.50
2009,04,21,09,53,10.60
2009,04,21,09,54,10.60
2009,04,21,09,55,10.70
2009,04,21,09,56,10.80
2009,04,21,09,57,10.80
2009,04,21,09,58,10.70
2009,04,21,09,59,10.80
2009,04,21,10,00,10.90
2009,04,21,10,01,10.90
2009,04,21,10,02,11.00
2009,04,21,10,03,11.10
2009,04,21,10,04,11.10
2009,04,21,10,05,11.20
2009,04,21,10,06,11.20
2009,04,21,10,07,11.10
2009,04,21,10,08,11.10
2009,04,21,10,09,11.20
2009,04,21,10,10,11.30
2009,04,21,10,11,11.40
2009,04,21,10,12,11.30
2009,04,21,10,13,11.20
2009,04,21,10,14,11.10
2009,04,21,10,15,11.00
2009,04,21,10,16,10.90
2009,04,21,10,17,10.90
2009,04,21,10,18,10.80
2009,04,21,10,19,10.70
2009,04,21,10,20,10.60
2009,04,21,10,21,10.40
2009,04,21,10,22,10.30
2009,04,21,10,23,10.30
2009,04,21,10,24,10.30
2009,04,21,10,25,10.20
2009,04,21,10,26,10.20
2009,04,21,10,27,10.20
2009,04,21,10,28,10.20
2009,04,21,10,29,10.20
2009,04,21,10,30,10.20
2009,04,21,10,31,10.30
2009,04,21,10,32,10.30
2009,04,21,10,33,10.30
2009,04,21,10,34,10.20
2009,04,21,10,35,10.10
2009,04,21,10,36,10.00
2009,04,21,10,37,9.90
2009,04,21,10,38,9.90
2009,04,21,10,39,9.90
2009,04,21,10,40,9.90
2009,04,21,10,41,9.90
2009,04,21,10,42,9.90
2009,04,21,10,43,9.90
2009,04,21,10,44,9.90
2009,04,21,10,45,10.00
2009,04,21,10,46,10.10
2009,04,21,10,47,10.10
2009,04,21,10,48,10.00
2009,04,21,10,49,10.00
2009,04,21,10,50,9.90
2009,04,21,10,51,9.80
2009,04,21,10,52,9.80
2009,04,21,10,53,9.80
2009,04,21,10,54,9.80
2009,04,21,10,55,9.80
2009,04,21,10,56,9.80
2009,04,21,10,57,9.80
2009,04,21,10,58,9.80
2009,04,21,10,59,9.70
2009,04,21,11,00,9.70
2009,04,21,11,01,9.70
2009,04,21,11,02,9.80
2009,04,21,11,03,9.90
2009,04,21,11,04,10.00
2009,04,21,11,05,10.10
2009,04,21,11,06,10.10
2009,04,21,11,07,10.10
2009,04,21,11,08,10.20
2009,04,21,11,09,10.30
2009,04,21,11,10,10.30
2009,04,21,11,11,10.30
2009,04,21,11,12,10.20
2009,04,21,11,13,10.10
2009,04,21,11,14,10.10
2009,04,21,11,15,10.10
2009,04,21,11,16,10.10
2009,04,21,11,17,10.30
2009,04,21,11,18,10.40
2009,04,21,11,19,10.40
2009,04,21,11,20,10.50
2009,04,21,11,21,10.60
2009,04,21,11,22,10.60
2009,04,21,11,23,10.50
2009,04,21,11,24,10.50
2009,04,21,11,25,10.50
2009,04,21,11,26,10.50
2009,04,21,11,27,10.50
2009,04,21,11,28,10.40
2009,04,21,11,29,10.30
2009,04,21,11,30,10.30
2009,04,21,11,31,10.30
2009,04,21,11,32,10.30
2009,04,21,11,33,10.30
2009,04,21,11,34,10.20
2009,04,21,11,35,10.10
2009,04,21,11,36,10.00
2009,04,21,11,37,10.10
2009,04,21,11,38,10.20
2009,04,21,11,39,10.30
2009,04,21,11,40,10.40
2009,04,21,11,41,10.40
2009,04,21,11,42,10.40
2009,04,21,11,43,10.40
2009,04,21,11,44,10.40
2009,04,21,11,45,10.40
2009,04,21,11,46,10.30
2009,04,21,11,47,10.40
2009,04,21,11,48,10.40
2009,04,21,11,49,10.40
2009,04,21,11,50,10.40
2009,04,21,11,51,10.40
2009,04,21,11,52,10.40
2009,04,21,11,53,10.40
2009,04,21,11,54,10.40
2009,04,21,11,55,10.40
2009,04,21,11,56,10.40
2009,04,21,11,57,10.40
2009,04,21,11,58,10.50
2009,04,21,11,59,10.60
2009,04,21,12,00,10.70
2009,04,21,12,01,10.80
2009,04,21,12,02,11.00
2009,04,21,12,03,11.10
2009,04,21,12,04,11.10
2009,04,21,12,05,10.90
2009,04,21,12,06,10.90
2009,04,21,12,07,10.80
2009,04,21,12,08,10.70
2009,04,21,12,09,10.50
2009,04,21,12,10,10.50
2009,04,21,12,11,10.50
2009,04,21,12,12,10.40
2009,04,21,12,13,10.40
2009,04,21,12,14,10.40
2009,04,21,12,15,10.40
2009,04,21,12,16,10.40
2009,04,21,12,17,10.50
2009,04,21,12,18,10.50
2009,04,21,12,19,10.50
2009,04,21,12,20,10.50
2009,04,21,12,21,10.60
2009,04,21,12,22,10.70
2009,04,21,12,23,10.80
2009,04,21,12,24,10.80
2009,04,21,12,25,10.90
2009,04,21,12,26,10.90
2009,04,21,12,27,10.90
2009,04,21,12,28,11.10
2009,04,21,12,29,11.10
2009,04,21,12,30,11.10
2009,04,21,12,31,11.00
2009,04,21,12,32,10.90
2009,04,21,12,33,10.90
2009,04,21,12,34,10.90
2009,04,21,12,35,10.90
2009,04,21,12,36,10.90
2009,04,21,12,37,11.00
2009,04,21,12,38,11.10
2009,04,21,12,39,11.30
2009,04,21,12,40,11.40
2009,04,21,12,41,11.60
2009,04,21,12,42,11.60
2009,04,21,12,43,11.50
2009,04,21,12,44,11.50
2009,04,21,12,45,11.60
2009,04,21,12,46,11.60
2009,04,21,12,47,11.40
2009,04,21,12,48,11.30
2009,04,21,12,49,11.20
2009,04,21,12,50,11.20
2009,04,21,12,51,11.40
2009,04,21,12,52,11.60
2009,04,21,12,53,11.70
2009,04,21,12,54,11.80
2009,04,21,12,55,11.80
2009,04,21,12,56,11.80
2009,04,21,12,57,11.70
2009,04,21,12,58,11.70
2009,04,21,12,59,11.60
2009,04,21,13,00,11.50
2009,04,21,13,01,11.30
2009,04,21,13,02,11.30
2009,04,21,13,03,11.20
2009,04,21,13,04,11.10
2009,04,21,13,05,11.00
2009,04,21,13,06,10.80
2009,04,21,13,07,10.80
2009,04,21,13,08,10.90
2009,04,21,13,09,11.00
2009,04,21,13,10,11.00
2009,04,21,13,11,11.00
2009,04,21,13,12,11.10
2009,04,21,13,13,11.30
2009,04,21,13,14,11.60
2009,04,21,13,15,11.70
2009,04,21,13,16,11.80
2009,04,21,13,17,11.80
2009,04,21,13,18,12.00
2009,04,21,13,19,12.10
2009,04,21,13,20,12.20
2009,04,21,13,21,12.30
2009,04,21,13,22,12.40
2009,04,21,13,23,12.40
2009,04,21,13,24,12.50
2009,04,21,13,25,12.60
2009,04,21,13,26,12.70
2009,04,21,13,27,12.90
2009,04,21,13,28,13.10
2009,04,21,13,29,13.20
2009,04,21,13,30,13.40
2009,04,21,13,31,13.50
2009,04,21,13,32,13.70
2009,04,21,13,33,13.80
2009,04,21,13,34,14.10
2009,04,21,13,35,14.30
2009,04,21,13,36,14.60
2009,04,21,13,37,15.00
2009,04,21,13,38,15.00
2009,04,21,13,39,15.40
2009,04,21,13,40,15.60
2009,04,21,13,41,15.90
2009,04,21,13,42,16.10
2009,04,21,13,43,16.50
2009,04,21,13,44,16.90
2009,04,21,13,45,17.20
2009,04,21,13,46,17.30
2009,04,21,13,47,17.50
2009,04,21,13,48,17.70
2009,04,21,13,49,18.10
2009,04,21,13,50,18.50
2009,04,21,13,51,19.00
2009,04,21,13,52,19.30
2009,04,21,13,53,19.70
2009,04,21,13,54,20.00
2009,04,21,13,55,20.20
2009,04,21,13,56,20.50
2009,04,21,13,57,20.60
2009,04,21,13,58,20.70
2009,04,21,13,59,20.80
2009,04,21,14,00,20.90
2009,04,21,14,01,21.00
2009,04,21,14,02,21.20
2009,04,21,14,03,21.30
2009,04,21,14,04,21.40
2009,04,21,14,05,21.50
2009,04,21,14,06,21.50
2009,04,21,14,07,21.40
2009,04,21,14,08,21.30
2009,04,21,14,09,21.30
2009,04,21,14,10,21.30
2009,04,21,14,11,21.30
2009,04,21,14,12,21.30
2009,04,21,14,13,21.30
2009,04,21,14,14,21.20
2009,04,21,14,15,21.20
2009,04,21,14,16,21.10
2009,04,21,14,17,21.10
2009,04,21,14,18,21.10
2009,04,21,14,19,21.10
2009,04,21,14,20,21.20
2009,04,21,14,21,21.30
2009,04,21,14,22,21.20
2009,04,21,14,23,21.30
2009,04,21,14,24,21.30
2009,04,21,14,25,21.40
2009,04,21,14,26,21.50
2009,04,21,14,27,21.60
2009,04,21,14,28,21.60
2009,04,21,14,29,21.70
2009,04,21,14,30,21.80
2009,04,21,14,31,21.90
2009,04,21,14,32,21.80
2009,04,21,14,33,21.80
2009,04,21,14,34,21.80
2009,04,21,14,35,21.80
2009,04,21,14,36,21.70
2009,04,21,14,37,21.70
2009,04,21,14,38,21.70
2009,04,21,14,39,21.70
2009,04,21,14,40,21.70
2009,04,21,14,41,21.60
2009,04,21,14,42,21.70
2009,04,21,14,43,21.70
2009,04,21,14,44,21.70
2009,04,21,14,45,21.70
2009,04,21,14,46,21.70
2009,04,21,14,47,21.60
2009,04,21,14,48,21.60
2009,04,21,14,49,21.50
2009,04,21,14,50,21.40
2009,04,21,14,51,21.40
2009,04,21,14,52,21.40
2009,04,21,14,53,21.50
2009,04,21,14,54,21.40
2009,04,21,14,55,21.40
2009,04,21,14,56,21.40
2009,04,21,14,57,21.40
2009,04,21,14,58,21.40
2009,04,21,14,59,21.40
2009,04,21,15,00,21.30
2009,04,21,15,01,21.20
2009,04,21,15,02,21.20
2009,04,21,15,03,21.20
2009,04,21,15,04,21.30
2009,04,21,15,05,21.20
2009,04,21,15,06,21.30
2009,04,21,15,07,21.30
2009,04,21,15,08,21.30
2009,04,21,15,09,21.30
2009,04,21,15,10,21.40
2009,04,21,15,11,21.40
2009,04,21,15,12,21.40
2009,04,21,15,13,21.40
2009,04,21,15,14,21.30
2009,04,21,15,15,21.30
2009,04,21,15,16,21.20
2009,04,21,15,17,21.10
2009,04,21,15,18,21.10
2009,04,21,15,19,21.10
2009,04,21,15,20,21.10
2009,04,21,15,21,21.10
2009,04,21,15,22,21.20
2009,04,21,15,23,21.20
2009,04,21,15,24,21.30
2009,04,21,15,25,21.40
2009,04,21,15,26,21.40
2009,04,21,15,27,21.40
2009,04,21,15,28,21.50
2009,04,21,15,29,21.50
2009,04,21,15,30,21.40
2009,04,21,15,31,21.40
2009,04,21,15,32,21.40
2009,04,21,15,33,21.40
2009,04,21,15,34,21.40
2009,04,21,15,35,21.40
2009,04,21,15,36,21.40
2009,04,21,15,37,21.50
2009,04,21,15,38,21.60
2009,04,21,15,39,21.60
2009,04,21,15,40,21.70
2009,04,21,15,41,21.60
2009,04,21,15,42,21.50
2009,04,21,15,43,21.40
2009,04,21,15,44,21.30
2009,04,21,15,45,21.30
2009,04,21,15,46,21.30
2009,04,21,15,47,21.20
2009,04,21,15,48,21.20
2009,04,21,15,49,21.20
2009,04,21,15,50,21.20
2009,04,21,15,51,21.20
2009,04,21,15,52,21.20
2009,04,21,15,53,21.20
2009,04,21,15,54,21.10
2009,04,21,15,55,21.10
2009,04,21,15,56,21.10
2009,04,21,15,57,21.10
2009,04,21,15,58,21.10
2009,04,21,15,59,21.00
2009,04,21,16,00,21.00
2009,04,21,16,01,21.10
2009,04,21,16,02,21.10
2009,04,21,16,03,21.10
2009,04,21,16,04,21.10
2009,04,21,16,05,21.10
2009,04,21,16,06,21.10
2009,04,21,16,07,21.20
2009,04,21,16,08,21.20
2009,04,21,16,09,21.20
2009,04,21,16,10,21.30
2009,04,21,16,11,21.30
2009,04,21,16,12,21.30
2009,04,21,16,13,21.20
2009,04,21,16,14,21.20
2009,04,21,16,15,21.20
2009,04,21,16,16,21.30
2009,04,21,16,17,21.30
2009,04,21,16,18,21.40
2009,04,21,16,19,21.40
2009,04,21,16,20,21.50
2009,04,21,16,21,21.40
2009,04,21,16,22,21.40
2009,04,21,16,23,21.30
2009,04,21,16,24,21.20
2009,04,21,16,25,21.10
2009,04,21,16,26,21.10
2009,04,21,16,27,21.00
2009,04,21,16,28,21.00
2009,04,21,16,29,20.90
2009,04,21,16,30,20.80
2009,04,21,16,31,20.70
2009,04,21,16,32,20.80
2009,04,21,16,33,20.80
2009,04,21,16,34,20.80
2009,04,21,16,35,20.70
2009,04,21,16,36,20.60
2009,04,21,16,37,20.60
2009,04,21,16,38,20.60
2009,04,21,16,39,20.60
2009,04,21,16,40,20.60
2009,04,21,16,41,20.60
2009,04,21,16,42,20.60
2009,04,21,16,43,20.60
2009,04,21,16,44,20.60
2009,04,21,16,45,20.60
2009,04,21,16,46,20.50
2009,04,21,16,47,20.50
2009,04,21,16,48,20.40
2009,04,21,16,49,20.30
2009,04,21,16,50,20.30
2009,04,21,16,51,20.30
2009,04,21,16,52,20.30
2009,04,21,16,53,20.20
2009,04,21,16,54,20.20
2009,04,21,16,55,20.20
2009,04,21,16,56,20.20
2009,04,21,16,57,20.20
2009,04,21,16,58,20.20
2009,04,21,16,59,20.20
2009,04,21,17,00,20.30
2009,04,21,17,01,20.30
2009,04,21,17,02,20.30
2009,04,21,17,03,20.30
2009,04,21,17,04,20.30
2009,04,21,17,05,20.30
2009,04,21,17,06,20.20
2009,04,21,17,07,20.10
2009,04,21,17,08,20.10
2009,04,21,17,09,20.00
2009,04,21,17,10,20.00
2009,04,21,17,11,20.00
2009,04,21,17,12,20.00
2009,04,21,17,13,19.90
2009,04,21,17,14,19.90
2009,04,21,17,15,19.90
2009,04,21,17,16,19.90
2009,04,21,17,17,19.90
2009,04,21,17,18,19.90
2009,04,21,17,19,19.90
2009,04,21,17,20,19.90
2009,04,21,17,21,19.80
2009,04,21,17,22,19.80
2009,04,21,17,23,19.70
2009,04,21,17,24,19.70
2009,04,21,17,25,19.80
2009,04,21,17,26,19.80
2009,04,21,17,27,19.80
2009,04,21,17,28,19.90
2009,04,21,17,29,19.90
2009,04,21,17,30,20.00
2009,04,21,17,31,20.00
2009,04,21,17,32,19.90
2009,04,21,17,33,19.90
2009,04,21,17,34,19.90
2009,04,21,17,35,19.90
2009,04,21,17,36,19.90
2009,04,21,17,37,19.90
2009,04,21,17,38,19.90
2009,04,21,17,39,19.90
2009,04,21,17,40,19.90